• In Czech Republic
  • List of Countries
  • For 7 days
  • Water Temperature
  • Satellite Maps
  • Weather Map
  • Weather Widgets
  • user-avatar
    Login

    Hourly Weather Kikino

    Today, 19 April, Thursday

    Time Temperature Precipitation Wind Pressure Humidity
    00:00 +6°C° 0 mm 5 mps 743 mmHg 83%
    01:00 +6°C° 0 mm 5 mps 742 mmHg 85%
    02:00 +6°C° 0 mm 4 mps 742 mmHg 87%
    03:00 +6°C° 0.2 mm 5 mps 741 mmHg 88%
    04:00 +6°C° 0.2 mm 5 mps 741 mmHg 88%
    05:00 +6°C° 0.2 mm 5 mps 740 mmHg 89%
    06:00 +5°C° 0.1 mm 6 mps 740 mmHg 87%
    07:00 +5°C° 0.1 mm 6 mps 740 mmHg 86%
    08:00 +7°C° 0 mm 6 mps 739 mmHg 84%
    09:00 +6°C° 0.2 mm 7 mps 739 mmHg 83%
    10:00 +6°C° 0.2 mm 7 mps 739 mmHg 82%
    11:00 +8°C° 0.2 mm 7 mps 739 mmHg 81%
    12:00 +9°C° 0.2 mm 7 mps 739 mmHg 76%
    13:00 +10°C° 0.2 mm 8 mps 739 mmHg 71%
    14:00 +11°C° 0.2 mm 8 mps 739 mmHg 66%
    15:00 +11°C° 0.1 mm 8 mps 739 mmHg 64%
    16:00 +11°C° 0.1 mm 7 mps 739 mmHg 63%
    17:00 +11°C° 0.1 mm 7 mps 740 mmHg 61%
    18:00 +10°C° 0.1 mm 7 mps 740 mmHg 66%
    19:00 +9°C° 0.1 mm 7 mps 740 mmHg 71%
    20:00 +9°C° 0.1 mm 7 mps 741 mmHg 75%
    21:00 +8°C° 0 mm 7 mps 741 mmHg 77%
    22:00 +8°C° 0 mm 7 mps 742 mmHg 78%
    23:00 +6°C° 0 mm 8 mps 742 mmHg 79%

    Tomorrow, 20 April, Friday

    Time Temperature Precipitation Wind Pressure Humidity
    00:00 +6°C° 0 mm 7 mps 742 mmHg 79%
    01:00 +6°C° 0 mm 7 mps 743 mmHg 79%
    02:00 +5°C° 0 mm 7 mps 743 mmHg 78%
    03:00 +5°C° 0 mm 7 mps 744 mmHg 80%
    04:00 +4°C° 0 mm 7 mps 744 mmHg 82%
    05:00 +4°C° 0 mm 7 mps 744 mmHg 84%
    06:00 +4°C° 0 mm 7 mps 745 mmHg 80%
    07:00 +5°C° 0 mm 8 mps 746 mmHg 75%
    08:00 +6°C° 0 mm 8 mps 746 mmHg 71%
    09:00 +6°C° 0 mm 8 mps 747 mmHg 68%
    10:00 +7°C° 0 mm 8 mps 747 mmHg 66%
    11:00 +9°C° 0 mm 7 mps 747 mmHg 63%
    12:00 +10°C° 0 mm 7 mps 748 mmHg 59%
    13:00 +11°C° 0 mm 7 mps 748 mmHg 55%
    14:00 +12°C° 0 mm 7 mps 748 mmHg 51%
    15:00 +11°C° 0 mm 6 mps 748 mmHg 53%
    16:00 +11°C° 0 mm 6 mps 748 mmHg 55%
    17:00 +12°C° 0 mm 5 mps 748 mmHg 56%
    18:00 +10°C° 0 mm 4 mps 749 mmHg 63%
    19:00 +9°C° 0 mm 3 mps 749 mmHg 69%
    20:00 +8°C° 0 mm 2 mps 749 mmHg 76%
    21:00 +7°C° 0 mm 2 mps 749 mmHg 79%
    22:00 +6°C° 0 mm 2 mps 749 mmHg 82%
    23:00 +6°C° 0 mm 2 mps 749 mmHg 85%

    Day after tomorrow, 21 April, Saturday

    Time Temperature Precipitation Wind Pressure Humidity
    00:00 +5°C° 0 mm 2 mps 749 mmHg 87%
    01:00 +5°C° 0 mm 2 mps 749 mmHg 88%
    02:00 +5°C° 0 mm 2 mps 748 mmHg 90%
    03:00 +5°C° 0 mm 2 mps 748 mmHg 90%
    04:00 +4°C° 0 mm 3 mps 747 mmHg 91%
    05:00 +4°C° 0 mm 3 mps 747 mmHg 91%
    06:00 +5°C° 0 mm 5 mps 746 mmHg 84%
    07:00 +7°C° 0 mm 6 mps 745 mmHg 77%
    08:00 +9°C° 0 mm 7 mps 744 mmHg 70%
    09:00 +11°C° 0 mm 7 mps 743 mmHg 65%
    10:00 +13°C° 0 mm 8 mps 742 mmHg 60%
    11:00 +16°C° 0 mm 9 mps 741 mmHg 55%
    12:00 +17°C° 0 mm 9 mps 740 mmHg 54%
    13:00 +17°C° 0 mm 10 mps 739 mmHg 52%
    14:00 +18°C° 0 mm 10 mps 737 mmHg 50%
    15:00 +17°C° 0.3 mm 9 mps 737 mmHg 55%
    16:00 +17°C° 0.3 mm 9 mps 736 mmHg 59%
    17:00 +16°C° 0.3 mm 9 mps 735 mmHg 64%
    18:00 +15°C° 0.6 mm 8 mps 735 mmHg 68%
    19:00 +12°C° 0.6 mm 7 mps 735 mmHg 71%
    20:00 +11°C° 0.6 mm 7 mps 735 mmHg 75%
    21:00 +9°C° 0 mm 6 mps 736 mmHg 75%
    22:00 +8°C° 0 mm 5 mps 736 mmHg 76%
    23:00 +7°C° 0 mm 5 mps 736 mmHg 76%

    22 April, Sunday

    Time Temperature Precipitation Wind Pressure Humidity
    00:00 +6°C° 0 mm 5 mps 737 mmHg 77%
    01:00 +5°C° 0 mm 6 mps 737 mmHg 78%
    02:00 +4°C° 0 mm 6 mps 737 mmHg 79%
    03:00 +4°C° 0 mm 6 mps 737 mmHg 80%
    04:00 +4°C° 0 mm 6 mps 738 mmHg 81%
    05:00 +3°C° 0 mm 6 mps 738 mmHg 83%
    06:00 +4°C° 0 mm 7 mps 738 mmHg 78%
    07:00 +4°C° 0 mm 8 mps 739 mmHg 74%
    08:00 +5°C° 0 mm 8 mps 739 mmHg 69%
    09:00 +6°C° 0.1 mm 8 mps 739 mmHg 64%
    10:00 +7°C° 0.1 mm 8 mps 739 mmHg 60%
    11:00 +9°C° 0.1 mm 8 mps 740 mmHg 55%
    12:00 +9°C° 0.1 mm 8 mps 740 mmHg 53%
    13:00 +10°C° 0.1 mm 8 mps 740 mmHg 50%
    14:00 +10°C° 0.1 mm 8 mps 740 mmHg 48%
    15:00 +10°C° 0.1 mm 7 mps 740 mmHg 50%
    16:00 +9°C° 0.1 mm 6 mps 740 mmHg 52%
    17:00 +9°C° 0.1 mm 6 mps 741 mmHg 54%
    18:00 +8°C° 0.1 mm 5 mps 741 mmHg 60%
    19:00 +8°C° 0.1 mm 3 mps 741 mmHg 65%
    20:00 +7°C° 0.1 mm 2 mps 742 mmHg 71%
    21:00 +6°C° 0.2 mm 2 mps 742 mmHg 74%
    22:00 +6°C° 0.2 mm 2 mps 742 mmHg 76%
    23:00 +6°C° 0.2 mm 2 mps 742 mmHg 79%

    23 April, Monday

    Time Temperature Precipitation Wind Pressure Humidity
    00:00 +4°C° 0.2 mm 3 mps 742 mmHg 78%
    01:00 +4°C° 0.2 mm 3 mps 743 mmHg 78%
    02:00 +3°C° 0.2 mm 3 mps 743 mmHg 77%
    03:00 +3°C° 0 mm 3 mps 743 mmHg 75%
    04:00 +2°C° 0 mm 3 mps 744 mmHg 74%
    05:00 +2°C° 0 mm 3 mps 744 mmHg 72%
    06:00 +2°C° 0 mm 3 mps 744 mmHg 67%
    07:00 +3°C° 0 mm 3 mps 745 mmHg 61%
    08:00 +4°C° 0 mm 4 mps 745 mmHg 56%
    09:00 +5°C° 0 mm 4 mps 745 mmHg 51%
    10:00 +5°C° 0 mm 4 mps 745 mmHg 46%
    11:00 +7°C° 0 mm 3 mps 746 mmHg 42%
    12:00 +8°C° 0 mm 3 mps 746 mmHg 40%
    13:00 +9°C° 0 mm 3 mps 746 mmHg 38%
    14:00 +9°C° 0 mm 3 mps 746 mmHg 36%
    15:00 +9°C° 0 mm 3 mps 746 mmHg 38%
    16:00 +9°C° 0 mm 3 mps 746 mmHg 39%
    17:00 +9°C° 0 mm 3 mps 746 mmHg 40%
    18:00 +7°C° 0 mm 2 mps 746 mmHg 44%
    19:00 +7°C° 0 mm 1 mps 746 mmHg 48%
    20:00 +6°C° 0 mm 1 mps 746 mmHg 51%
    21:00 +6°C° 0 mm 1 mps 746 mmHg 53%
    22:00 +5°C° 0 mm 1 mps 746 mmHg 55%
    23:00 +4°C° 0 mm 1 mps 746 mmHg 57%

    24 April, Tuesday

    Time Temperature Precipitation Wind Pressure Humidity
    00:00 +4°C° 0 mm 1 mps 746 mmHg 59%
    01:00 +3°C° 0 mm 2 mps 746 mmHg 61%
    02:00 +2°C° 0 mm 2 mps 746 mmHg 63%
    03:00 +2°C° 0 mm 2 mps 746 mmHg 64%
    04:00 +2°C° 0 mm 2 mps 746 mmHg 66%
    05:00 +2°C° 0 mm 2 mps 746 mmHg 68%
    06:00 +4°C° 0 mm 2 mps 746 mmHg 64%
    07:00 +5°C° 0 mm 3 mps 746 mmHg 60%
    08:00 +8°C° 0 mm 3 mps 746 mmHg 56%
    09:00 +8°C° 0 mm 4 mps 745 mmHg 56%
    10:00 +10°C° 0 mm 4 mps 744 mmHg 56%
    11:00 +10°C° 0 mm 5 mps 744 mmHg 56%
    12:00 +9°C° 0.7 mm 5 mps 743 mmHg 62%
    13:00 +9°C° 0.7 mm 5 mps 743 mmHg 68%
    14:00 +8°C° 0.7 mm 5 mps 742 mmHg 74%
    15:00 +8°C° 0.6 mm 5 mps 742 mmHg 78%
    16:00 +8°C° 0.6 mm 5 mps 741 mmHg 82%
    17:00 +7°C° 0.6 mm 5 mps 740 mmHg 86%
    18:00 +7°C° 0.2 mm 5 mps 740 mmHg 88%
    19:00 +7°C° 0.2 mm 5 mps 740 mmHg 90%
    20:00 +7°C° 0.2 mm 4 mps 739 mmHg 92%
    21:00 +7°C° 0.1 mm 4 mps 739 mmHg 93%
    22:00 +8°C° 0.1 mm 3 mps 739 mmHg 95%
    23:00 +8°C° 0.1 mm 3 mps 739 mmHg 96%
    Show more